COSMOS 2251 DEB, 33994

Orbit data source: Space-Track

COSMOS 2251 DEB, 33994 is space debris in LEO originally from a launch on Wed, 16 Jun 1993 UTC launched from the Plesetsk Missile And Space Complex (PKMTR). The debris from Iridium 33, an American commercial communications satellite, has been tracked extensively since its accidental collision with the defunct Russian satellite Cosmos 2251 in 2009. This event, occurring at high speed in low Earth orbit (LEO), generated thousands of pieces of space debris, significantly increasing the risk of further collisions. The Iridium 33 debris cloud has impacted space traffic management and orbital debris mitigation strategies, making it a subject of ongoing study in space situational awareness.

Loading next visibility...
Identifier
33994, 1993-036GD
Orbit
LEO
Country
Flag of CISCIS
Related business
Manufacturer
Unknown
Mission
Spacecraft
Bus & Motor
Unknown
Mass
Unknown
Launch date (UTC)
1993-06-16 (33 years ago)
Launch vehicle
Unknown
Launch site
Plesetsk Missile And Space Complex (PKMTR)
Object type
Payload
Rocket body
Debris
Shape & HBR
Unknown shape, 0.2 m
Radar Cross Section
Medium (>0.1 m² and <1 m²)

Expand to show TLE details & history
Last TLE update: 2 days ago

TLE from 2 days ago
0 COSMOS 2251 DEB
1 33994U 93036GD  26171.40596742  .00000119  00000-0  44828-4 0  9994
2 33994  74.0417 199.3840 0024313 288.1924 180.5493 14.41335417911525
Epoch: 2026-06-20T09:44Z
TLE epoch observation values (Epoch: 2026-06-20T09:44:35.585Z)
Latitude
65.67166°
Longitude
-74.37115°
Altitude
782.418 km
Speed
7.46 km/s
True Right ascension
22h 41m 35s
True Declination
65° 32' 34"
Sunlit
Object was in daylight at epoch
Visualization orbit readout
Latitude
Unknown
Longitude
Unknown
Altitude
Unknown
Speed
Unknown
Apparent Right ascension
Unknown
Apparent Declination
Unknown
Sunlit
N/A
Visualization observer readout
Local Sidereal Time
05:59:28
Azimuth
Unknown
Elevation
Unknown
Doppler factor
Unknown
Orbital elements
Apogee altitude
769.042 km
Perigee altitude
734.372 km
Semi-major axis
7,129.844 km
Eccentricity
0.00243
Inclination
74.0417°
RAAN
199.384°
Arg. of periapsis
288.1924°
True anomaly
180.54664°
Mean anomaly
180.5493°
Eccentric anomaly
180.54797°
Mean motion
3.60515 °/min
Orbital period
99.86 mins
BSTAR
0.000044828

Documentation

Showing up to 5 results
|